Location: Bessat
(45.8735°N, 1.9924°E)
Time: 06:55:07
(UTC+00:00)

SL-24 R/B - RUBIN 2 - Pass Details

Date: 11 May 2021
Orbit: 583 x 1012 km, 64.6° (Epoch: 20 June)

Event Time Altitude Azimuth Distance (km) Brightness Sun altitude
Rises 22:03:46 0° 324° (NW) 3,425 8.8 -21.8°
Reaches altitude 10° 22:06:24 10° 327° (NNW) 2,415 7.7 -22.0°
Maximum altitude 22:11:54 67° 50° (NE) 804 4.1 -22.4°
Enters shadow 22:13:07 49° 111° (ESE) 933 4.1 -22.5°
